This is the latest recevied weather packets stored in our database for station/object K9NZF-1. If no packets are shown the sender has not sent any weather packets the latest 10 day(s).
| Time | Temp. | Humidity | Pressure | Rain* | Wind** | Luminosity | Snow |
|---|---|---|---|---|---|---|---|
| 1778194193 | 13.33° C | 48% | 1012.7 hPa | 0 mm | - | 39 W/m² | - |
| 1778194133 | 13.33° C | 48% | 1012.6 hPa | 0 mm | - | 44 W/m² | - |
| 1778194075 | 13.33° C | 50% | 1012.7 hPa | 0 mm | - | 47 W/m² | - |
| 1778194015 | 13.33° C | 51% | 1012.7 hPa | 0 mm | - | 46 W/m² | - |
| 1778193952 | 13.33° C | 50% | 1012.6 hPa | 0 mm | - | 47 W/m² | - |
| 1778193894 | 13.33° C | 50% | 1012.6 hPa | 0 mm | - | 49 W/m² | - |
| 1778193833 | 13.33° C | 49% | 1012.6 hPa | 0 mm | - | 54 W/m² | - |
| 1778193776 | 13.33° C | 49% | 1012.6 hPa | 0 mm | - | 58 W/m² | - |
| 1778193715 | 13.33° C | 49% | 1012.6 hPa | 0 mm | - | 63 W/m² | - |
| 1778193651 | 13.33° C | 49% | 1012.6 hPa | 0 mm | - | 70 W/m² | - |
| 1778193593 | 13.33° C | 48% | 1012.6 hPa | 0 mm | - | 76 W/m² | - |
| 1778193538 | 13.33° C | 49% | 1012.6 hPa | 0 mm | - | 84 W/m² | - |
| 1778193475 | 13.33° C | 49% | 1012.6 hPa | 0 mm | - | 86 W/m² | - |
| 1778193423 | 13.33° C | 46% | 1012.6 hPa | 0 mm | - | 100 W/m² | - |
| 1778193353 | 13.33° C | 46% | 1012.6 hPa | 0 mm | - | 102 W/m² | - |
| 1778193295 | 13.33° C | 48% | 1012.6 hPa | 0 mm | - | 109 W/m² | - |
| 1778193234 | 13.33° C | 46% | 1012.6 hPa | 0 mm | - | 116 W/m² | - |
| 1778193173 | 13.33° C | 48% | 1012.6 hPa | 0 mm | - | 125 W/m² | - |
| 1778193113 | 13.33° C | 47% | 1012.6 hPa | 0 mm | - | 137 W/m² | - |
| 1778193054 | 13.33° C | 48% | 1012.7 hPa | 0 mm | - | 151 W/m² | - |
| 1778192993 | 13.33° C | 48% | 1012.7 hPa | 0 mm | - | 165 W/m² | - |
| 1778192934 | 13.33° C | 48% | 1012.7 hPa | 0 mm | - | 167 W/m² | - |
| 1778192872 | 13.33° C | 47% | 1012.7 hPa | 0 mm | - | 151 W/m² | - |
| 1778192814 | 13.33° C | 48% | 1012.8 hPa | 0 mm | - | 135 W/m² | - |
| 1778192754 | 13.33° C | 48% | 1012.8 hPa | 0 mm | - | 165 W/m² | - |
* Rain latest hour (hover to see other rain measurements)
** Current wind speed in m/s (hover to see current wind gust speed)